Weather History for De Quincy Industrial Air Park, LA

Change the Weather History Date:

Sunday, June 8, 2014

  Actual Average (KLCH) Record (KLCH)
Temperature  
Mean Temperature 79 °F 80 °F  
Max Temperature 90 °F 89 °F 104 °F (1911)
Min Temperature 68 °F 72 °F 59 °F (1930)
Degree Days  
Heating Degree Days 0 0  
Month to date heating degree days 0  
Since 1 June heating degree days 0  
Since 1 July heating degree days 1490  
Cooling Degree Days 14 15  
Month to date cooling degree days 117  
Year to date cooling degree days 655  
Since 1 June cooling degree days 117  
Growing Degree Days 29 (Base 50)    
Moisture  
Dew Point 72 °F    
Average Humidity 80    
Maximum Humidity 98    
Minimum Humidity 54    
Precipitation  
Precipitation 0.00 in 0.20 in 2.90 in (1897)
Month to date precipitation 1.59  
Year to date precipitation 22.47  
Snow  
Snow 0.00 in 0.00 in 0.00 in ()
Month to date snowfall 0.0  
Since 1 June snowfall 0.0  
Since 1 July snowfall 0.1  
Snow Depth -    
Sea Level Pressure  
Sea Level Pressure 29.93 in    
Wind  
Wind Speed 2 mph (SSW)    
Max Wind Speed 12 mph    
Max Gust Speed 18 mph    
Visibility 10 miles    
Events      
T = Trace of Precipitation, MM = Missing Value Source: NWS Daily Summary

Daily Weather History Graph

Daily Weather History Graph

Search for Another Location

Airport:

Trip Planner

Search our weather history database for the weather conditions in past years. The results will help you decide how hot, cold, wet, or windy it might be!

Date:

Astronomy

Jun. 08, 2014 Rise Set
Actual Time 6:11 AM CDT 8:14 PM CDT
Civil Twilight 5:43 AM CDT 8:42 PM CDT
Nautical Twilight 5:10 AM CDT 9:15 PM CDT
Astronomical Twilight 4:34 AM CDT 9:51 PM CDT
Moon 3:50 PM CDT (6/8) 2:45 AM CDT (6/8)
Length of Visible Light 14h 58m
Length of Day
14h 03m
Waxing Gibbous, 77% of the Moon is Illuminated
Jun 8
Waxing Gibbous
Jun 12
Full
Jun 19
Last Quarter
Jun 27
New
Jul 5
First Quarter

Hourly Weather History & Observations

Time (CDT) Temp. Heat Index Dew Point Humidity Pressure Visibility Wind Dir Wind Speed Gust Speed Precip Events Conditions
12:15 AM 72.9 °F - 71.6 °F 96% 29.96 in 10.0 mi Calm Calm - N/A   Clear
12:35 AM 72.7 °F - 71.4 °F 96% 29.96 in 10.0 mi Calm Calm - N/A   Clear
12:50 AM 72.5 °F - 71.1 °F 95% 29.96 in 10.0 mi Calm Calm - N/A   Clear
1:15 AM 71.8 °F - 70.7 °F 96% 29.95 in 10.0 mi Calm Calm - N/A   Clear
1:35 AM 71.6 °F - 70.5 °F 96% 29.94 in 10.0 mi Calm Calm - N/A   Clear
1:55 AM 71.6 °F - 70.3 °F 96% 29.95 in 10.0 mi Calm Calm - N/A   Clear
2:15 AM 71.2 °F - 70.2 °F 96% 29.95 in 10.0 mi Calm Calm - N/A   Clear
2:35 AM 71.1 °F - 70.0 °F 96% 29.94 in 10.0 mi Calm Calm - N/A   Clear
2:55 AM 70.7 °F - 69.8 °F 97% 29.94 in 7.0 mi Calm Calm - N/A   Clear
3:15 AM 70.7 °F - 69.8 °F 97% 29.94 in 7.0 mi Calm Calm - N/A   Clear
3:35 AM 70.3 °F - 69.4 °F 97% 29.94 in 7.0 mi Calm Calm - N/A   Clear
3:55 AM 69.8 °F - 68.9 °F 97% 29.94 in 10.0 mi Calm Calm - N/A   Clear
4:15 AM 69.3 °F - 68.4 °F 97% 29.94 in 7.0 mi Calm Calm - N/A   Clear
4:35 AM 69.6 °F - 68.7 °F 97% 29.94 in 10.0 mi Calm Calm - N/A   Clear
4:55 AM 69.1 °F - 68.0 °F 96% 29.94 in 10.0 mi Calm Calm - N/A   Clear
5:15 AM 69.4 °F - 68.4 °F 96% 29.94 in 10.0 mi Calm Calm - N/A   Clear
5:35 AM 68.9 °F - 68.0 °F 97% 29.94 in 7.0 mi Calm Calm - N/A   Clear
5:55 AM 68.9 °F - 68.0 °F 97% 29.95 in 7.0 mi Calm Calm - N/A   Clear
6:15 AM 68.9 °F - 68.2 °F 98% 29.95 in 7.0 mi Calm Calm - N/A   Clear
6:35 AM 68.9 °F - 68.0 °F 97% 29.95 in 10.0 mi Calm Calm - N/A   Clear
6:55 AM 70.0 °F - 69.1 °F 97% 29.95 in 10.0 mi Calm Calm - N/A   Clear
7:15 AM 72.0 °F - 70.5 °F 95% 29.95 in 10.0 mi Calm Calm - N/A   Scattered Clouds
7:35 AM 74.3 °F - 72.7 °F 95% 29.96 in 10.0 mi Calm Calm - N/A   Scattered Clouds
7:55 AM 76.1 °F - 73.9 °F 93% 29.97 in 10.0 mi Calm Calm - N/A   Clear
8:15 AM 77.0 °F - 73.6 °F 89% 29.97 in 10.0 mi Calm Calm - N/A   Clear
8:35 AM 78.3 °F - 74.3 °F 88% 29.98 in 10.0 mi Calm Calm - N/A   Clear
8:55 AM 79.9 °F - 74.5 °F 83% 29.99 in 10.0 mi SSW 4.6 mph - N/A   Clear
9:15 AM 81.1 °F 86.6 °F 73.9 °F 79% 30.00 in 10.0 mi SW 5.8 mph - N/A   Clear
9:35 AM 82.4 °F 88.4 °F 73.6 °F 75% 29.99 in 10.0 mi WSW 8.1 mph - N/A   Scattered Clouds
9:55 AM 83.5 °F 90.0 °F 73.6 °F 72% 29.99 in 10.0 mi SSW 5.8 mph - N/A   Scattered Clouds
10:15 AM 83.8 °F 90.1 °F 73.0 °F 70% 29.98 in 10.0 mi SW 4.6 mph - N/A   Scattered Clouds
10:35 AM 83.3 °F 89.3 °F 72.9 °F 71% 29.98 in 10.0 mi SSW 4.6 mph - N/A   Scattered Clouds
10:55 AM 84.4 °F 91.0 °F 73.4 °F 69% 29.98 in 10.0 mi Calm Calm - N/A   Scattered Clouds
11:15 AM 85.3 °F 90.8 °F 71.6 °F 63% 29.98 in 10.0 mi SSW 3.5 mph - N/A   Scattered Clouds
11:35 AM 87.3 °F 93.6 °F 71.6 °F 60% 29.98 in 10.0 mi South 8.1 mph - N/A   Scattered Clouds
11:55 AM 86.0 °F 91.8 °F 71.4 °F 62% 29.98 in 10.0 mi WSW 4.6 mph - N/A   Mostly Cloudy
12:15 PM 84.4 °F 90.6 °F 72.9 °F 68% 29.97 in 10.0 mi Calm Calm - N/A   Overcast
12:35 PM 85.3 °F 91.8 °F 72.7 °F 66% 29.97 in 10.0 mi Calm Calm - N/A   Mostly Cloudy
12:55 PM 87.6 °F 95.2 °F 73.0 °F 62% 29.96 in 10.0 mi South 8.1 mph - N/A   Mostly Cloudy
1:15 PM 86.4 °F 92.2 °F 71.4 °F 61% 29.96 in 10.0 mi SW 4.6 mph - N/A   Mostly Cloudy
1:35 PM 88.5 °F 94.9 °F 71.8 °F 57% 29.95 in 10.0 mi South 4.6 mph - N/A   Mostly Cloudy
1:55 PM 88.3 °F 95.4 °F 72.5 °F 59% 29.94 in 10.0 mi WSW 3.5 mph - N/A   Mostly Cloudy
2:15 PM 87.4 °F 94.0 °F 71.8 °F 60% 29.93 in 10.0 mi SSW 3.5 mph - N/A   Mostly Cloudy
2:35 PM 88.2 °F 94.6 °F 71.8 °F 58% 29.93 in 10.0 mi South 8.1 mph - N/A   Mostly Cloudy
2:55 PM 89.2 °F 94.9 °F 70.9 °F 54% 29.92 in 10.0 mi SSW 6.9 mph - N/A   Scattered Clouds
3:15 PM 90.3 °F 97.2 °F 71.4 °F 54% 29.90 in 10.0 mi South 9.2 mph - N/A   Scattered Clouds
3:35 PM 89.1 °F 95.5 °F 71.6 °F 56% 29.90 in 10.0 mi South 11.5 mph - N/A   Mostly Cloudy
3:55 PM 90.0 °F 96.4 °F 71.1 °F 54% 29.89 in 10.0 mi SSW 11.5 mph 16.1 mph N/A   Scattered Clouds
4:15 PM 88.9 °F 95.1 °F 71.6 °F 56% 29.89 in 10.0 mi South 10.4 mph 16.1 mph N/A   Scattered Clouds
4:35 PM 88.9 °F 96.1 °F 72.5 °F 58% 29.88 in 10.0 mi South 10.4 mph - N/A   Scattered Clouds
4:55 PM 87.8 °F 94.7 °F 72.5 °F 60% 29.88 in 10.0 mi South 9.2 mph - N/A   Clear
5:15 PM 86.7 °F 93.3 °F 72.5 °F 62% 29.87 in 10.0 mi South 11.5 mph 18.4 mph N/A   Clear
5:35 PM 86.0 °F 93.0 °F 72.9 °F 65% 29.86 in 10.0 mi South 6.9 mph - N/A   Clear
5:55 PM 85.6 °F 92.2 °F 72.7 °F 65% 29.85 in 10.0 mi South 9.2 mph 16.1 mph N/A   Clear
6:15 PM 84.2 °F 89.9 °F 72.3 °F 67% 29.84 in 10.0 mi SSE 11.5 mph 16.1 mph N/A   Clear
6:35 PM 83.5 °F 88.8 °F 72.0 °F 68% 29.85 in 10.0 mi South 8.1 mph - N/A   Clear
6:55 PM 83.1 °F 88.4 °F 72.0 °F 69% 29.85 in 10.0 mi South 5.8 mph - N/A   Clear
7:15 PM 82.6 °F 88.3 °F 73.0 °F 73% 29.86 in 10.0 mi SSW 6.9 mph - N/A   Scattered Clouds
7:35 PM 81.9 °F 86.8 °F 72.5 °F 73% 29.85 in 10.0 mi South 6.9 mph - N/A   Scattered Clouds
7:55 PM 80.8 °F 85.2 °F 72.7 °F 76% 29.86 in 10.0 mi South 4.6 mph - N/A   Clear
8:15 PM 79.7 °F - 72.9 °F 80% 29.86 in 10.0 mi South 3.5 mph - N/A   Clear
8:35 PM 78.8 °F - 72.7 °F 81% 29.86 in 10.0 mi Calm Calm - N/A   Clear
8:55 PM 77.9 °F - 72.5 °F 83% 29.86 in 10.0 mi Calm Calm - N/A   Clear
9:15 PM 77.5 °F - 72.0 °F 83% 29.86 in 10.0 mi Calm Calm - N/A   Clear
9:35 PM 77.2 °F - 72.0 °F 84% 29.88 in 10.0 mi Calm Calm - N/A   Clear
9:55 PM 75.7 °F - 72.0 °F 88% 29.88 in 10.0 mi Calm Calm - N/A   Clear
10:15 PM 76.3 °F - 71.8 °F 86% 29.89 in 10.0 mi SE 3.5 mph - N/A   Clear
10:30 PM 76.1 °F - 71.8 °F 86% 29.90 in 10.0 mi Calm Calm - N/A   Clear
10:55 PM 74.5 °F - 71.6 °F 91% 29.91 in 10.0 mi Calm Calm - N/A   Clear
11:15 PM 73.6 °F - 71.6 °F 93% 29.91 in 10.0 mi Calm Calm - N/A   Clear
11:35 PM 74.3 °F - 71.6 °F 91% 29.92 in 10.0 mi Calm Calm - N/A   Clear
11:55 PM 74.5 °F - 71.8 °F 91% 29.92 in 10.0 mi Calm Calm - N/A   Clear